TimeCST,TemperatureF,Dew PointF,Humidity,Sea Level PressureIn,VisibilityMPH,Wind Direction,Wind SpeedMPH,Gust SpeedMPH,PrecipitationIn,Events,Conditions,WindDirDegrees,DateUTC
12:14 AM,5.0,1.4,85,30.37,10.0,Calm,Calm,-,N/A,,Clear,0,2013-03-06 06:14:00
12:33 AM,5.0,1.4,85,30.37,10.0,Calm,Calm,-,N/A,,Clear,0,2013-03-06 06:33:00
12:54 AM,3.2,-0.4,85,30.37,10.0,Calm,Calm,-,N/A,,Clear,0,2013-03-06 06:54:00
1:14 AM,1.4,-2.2,85,30.37,10.0,NW,3.5,-,N/A,,Clear,310,2013-03-06 07:14:00
1:34 AM,-0.4,-5.8,78,30.37,10.0,Calm,Calm,-,N/A,,Mostly Cloudy,0,2013-03-06 07:34:00
1:54 AM,3.2,-2.2,78,30.37,7.0,Calm,Calm,-,N/A,,Overcast,0,2013-03-06 07:54:00
2:14 AM,1.4,-4.0,78,30.38,4.0,Calm,Calm,-,N/A,,Overcast,0,2013-03-06 08:14:00
2:34 AM,-0.4,-5.8,78,30.37,10.0,Calm,Calm,-,N/A,,Overcast,0,2013-03-06 08:34:00
2:54 AM,3.2,-0.4,85,30.38,10.0,Calm,Calm,-,N/A,,Overcast,0,2013-03-06 08:54:00
3:14 AM,3.2,-2.2,78,30.37,7.0,Calm,Calm,-,N/A,,Overcast,0,2013-03-06 09:14:00
3:34 AM,3.2,-0.4,85,30.37,10.0,Calm,Calm,-,N/A,Rain,Freezing Rain,0,2013-03-06 09:34:00
3:54 AM,6.8,1.4,79,30.37,10.0,Calm,Calm,-,N/A,Rain,Freezing Rain,0,2013-03-06 09:54:00
4:14 AM,6.8,3.2,85,30.37,10.0,Calm,Calm,-,N/A,Rain,Freezing Rain,0,2013-03-06 10:14:00
4:34 AM,6.8,3.2,85,30.37,10.0,Calm,Calm,-,N/A,Rain,Freezing Rain,0,2013-03-06 10:34:00
4:54 AM,8.6,3.2,79,30.38,10.0,Calm,Calm,-,N/A,Rain,Freezing Rain,0,2013-03-06 10:54:00
5:14 AM,6.8,3.2,85,30.38,1.8,Calm,Calm,-,N/A,Rain,Freezing Rain,0,2013-03-06 11:14:00
5:34 AM,5.0,1.4,85,30.39,4.0,Calm,Calm,-,N/A,,Freezing Rain,0,2013-03-06 11:34:00
5:54 AM,5.0,1.4,85,30.40,7.0,Calm,Calm,-,N/A,Rain,Freezing Rain,0,2013-03-06 11:54:00
6:14 AM,6.8,1.4,79,30.40,10.0,Calm,Calm,-,N/A,Rain,Freezing Rain,0,2013-03-06 12:14:00
6:34 AM,3.2,-0.4,85,30.41,10.0,Calm,Calm,-,N/A,Rain,Freezing Rain,0,2013-03-06 12:34:00
6:54 AM,5.0,1.4,85,30.41,5.0,Calm,Calm,-,N/A,Rain,Freezing Rain,0,2013-03-06 12:54:00
7:14 AM,5.0,1.4,85,30.42,7.0,Calm,Calm,-,N/A,Rain,Freezing Rain,0,2013-03-06 13:14:00
7:34 AM,6.8,1.4,79,30.42,10.0,Calm,Calm,-,N/A,Rain,Freezing Rain,0,2013-03-06 13:34:00
7:53 AM,6.8,3.2,85,30.42,10.0,Calm,Calm,-,N/A,Rain,Freezing Rain,0,2013-03-06 13:53:00
8:14 AM,8.6,3.2,79,30.42,7.0,Calm,Calm,-,N/A,Rain,Freezing Rain,0,2013-03-06 14:14:00
8:33 AM,8.6,5.0,85,30.42,10.0,Calm,Calm,-,N/A,Rain,Freezing Rain,0,2013-03-06 14:33:00
8:54 AM,10.4,6.8,85,30.42,10.0,Calm,Calm,-,N/A,Rain,Freezing Rain,0,2013-03-06 14:54:00
9:14 AM,12.2,8.6,85,30.42,10.0,Calm,Calm,-,N/A,,Overcast,0,2013-03-06 15:14:00
9:33 AM,12.2,10.4,92,30.42,10.0,Calm,Calm,-,N/A,,Overcast,0,2013-03-06 15:33:00
9:54 AM,15.8,10.4,79,30.42,10.0,Calm,Calm,-,N/A,,Overcast,0,2013-03-06 15:54:00
10:14 AM,15.8,12.2,86,30.41,10.0,Calm,Calm,-,N/A,,Overcast,0,2013-03-06 16:14:00
10:33 AM,17.6,12.2,79,30.41,10.0,Calm,Calm,-,N/A,,Mostly Cloudy,0,2013-03-06 16:33:00
10:54 AM,17.6,12.2,79,30.41,10.0,Calm,Calm,-,0.01,,Scattered Clouds,0,2013-03-06 16:54:00
11:14 AM,17.6,12.2,79,30.41,10.0,Calm,Calm,-,N/A,,Clear,0,2013-03-06 17:14:00
11:33 AM,17.6,12.2,79,30.41,10.0,South,3.5,-,N/A,,Clear,170,2013-03-06 17:33:00
11:54 AM,17.6,12.2,79,30.40,10.0,SSE,4.6,-,N/A,,Clear,160,2013-03-06 17:54:00
12:14 PM,17.6,14.0,86,30.40,10.0,SSE,3.5,-,N/A,,Clear,160,2013-03-06 18:14:00
12:33 PM,19.4,15.8,86,30.39,10.0,Calm,Calm,-,N/A,,Clear,0,2013-03-06 18:33:00
12:54 PM,19.4,15.8,86,30.39,10.0,Calm,Calm,-,N/A,,Clear,0,2013-03-06 18:54:00
1:14 PM,19.4,14.0,80,30.39,10.0,Calm,Calm,-,N/A,,Clear,0,2013-03-06 19:14:00
1:34 PM,21.2,14.0,74,30.37,10.0,Calm,Calm,-,N/A,,Clear,0,2013-03-06 19:34:00
1:54 PM,21.2,14.0,74,30.37,10.0,Calm,Calm,-,N/A,,Clear,0,2013-03-06 19:54:00
2:14 PM,23.0,14.0,68,30.35,10.0,East,5.8,-,N/A,,Clear,90,2013-03-06 20:14:00
2:34 PM,21.2,12.2,68,30.34,10.0,East,8.1,-,N/A,,Clear,100,2013-03-06 20:34:00
2:54 PM,21.2,12.2,68,30.34,10.0,ESE,8.1,-,N/A,,Clear,110,2013-03-06 20:54:00
3:13 PM,21.2,12.2,68,30.35,10.0,East,5.8,-,N/A,,Clear,100,2013-03-06 21:13:00
3:34 PM,21.2,12.2,68,30.35,10.0,East,5.8,-,N/A,,Clear,100,2013-03-06 21:34:00
4:14 PM,21.2,12.2,68,30.34,10.0,East,4.6,-,N/A,,Clear,90,2013-03-06 22:14:00
4:34 PM,19.4,12.2,74,30.34,10.0,East,3.5,-,N/A,,Clear,90,2013-03-06 22:34:00
4:54 PM,19.4,12.2,74,30.34,10.0,East,3.5,-,N/A,,Clear,80,2013-03-06 22:54:00
5:14 PM,19.4,12.2,74,30.34,10.0,ENE,3.5,-,N/A,,Clear,70,2013-03-06 23:14:00
5:34 PM,19.4,12.2,74,30.34,10.0,Calm,Calm,-,N/A,,Clear,0,2013-03-06 23:34:00
5:54 PM,17.6,10.4,73,30.34,10.0,Calm,Calm,-,N/A,,Clear,0,2013-03-06 23:54:00
6:14 PM,15.8,10.4,79,30.34,10.0,Calm,Calm,-,N/A,,Clear,0,2013-03-07 00:14:00
6:34 PM,15.8,10.4,79,30.34,10.0,Calm,Calm,-,N/A,,Clear,0,2013-03-07 00:34:00
6:54 PM,12.2,8.6,85,30.34,10.0,Calm,Calm,-,N/A,,Clear,0,2013-03-07 00:54:00
7:14 PM,12.2,8.6,85,30.34,10.0,Calm,Calm,-,N/A,,Clear,0,2013-03-07 01:14:00
7:34 PM,10.4,6.8,85,30.35,10.0,Calm,Calm,-,N/A,,Clear,0,2013-03-07 01:34:00
7:54 PM,8.6,3.2,79,30.35,10.0,Calm,Calm,-,N/A,,Clear,0,2013-03-07 01:54:00
8:14 PM,8.6,3.2,79,30.35,10.0,Calm,Calm,-,N/A,,Clear,0,2013-03-07 02:14:00
8:34 PM,8.6,3.2,79,30.34,10.0,Calm,Calm,-,N/A,,Clear,0,2013-03-07 02:34:00
8:54 PM,3.2,-0.4,85,30.34,10.0,Calm,Calm,-,N/A,,Clear,0,2013-03-07 02:54:00
9:14 PM,5.0,1.4,85,30.35,10.0,Calm,Calm,-,N/A,,Clear,0,2013-03-07 03:14:00
9:34 PM,6.8,1.4,79,30.34,0.8,Calm,Calm,-,N/A,,Mist,0,2013-03-07 03:34:00
9:54 PM,3.2,-0.4,85,30.34,5.0,Calm,Calm,-,N/A,,Scattered Clouds,0,2013-03-07 03:54:00
10:14 PM,3.2,-0.4,85,30.33,4.0,NE,3.5,-,N/A,,Scattered Clouds,40,2013-03-07 04:14:00
10:34 PM,1.4,-2.2,85,30.34,2.5,Calm,Calm,-,N/A,,Mostly Cloudy,0,2013-03-07 04:34:00
10:54 PM,1.4,-2.2,85,30.33,0.8,Calm,Calm,-,N/A,,Overcast,0,2013-03-07 04:54:00
11:14 PM,-0.4,-5.8,78,30.33,0.5,East,3.5,-,N/A,,Haze,80,2013-03-07 05:14:00
11:33 PM,-0.4,-5.8,78,30.32,0.5,Calm,Calm,-,N/A,,Haze,0,2013-03-07 05:33:00
11:54 PM,-0.4,-4.0,85,30.33,0.8,Calm,Calm,-,N/A,,Overcast,0,2013-03-07 05:54:00